TimePST,TemperatureF,Dew PointF,Humidity,Sea Level PressureIn,VisibilityMPH,Wind Direction,Wind SpeedMPH,Gust SpeedMPH,PrecipitationIn,Events,Conditions,WindDirDegrees,DateUTC
1:56 AM,30.0,28.0,92,30.25,7.0,NNE,3.5,-,N/A,,Clear,20,2013-01-02 09:56:00
2:56 AM,30.0,27.0,88,30.25,10.0,West,3.5,-,N/A,,Clear,280,2013-01-02 10:56:00
3:38 AM,28.4,26.6,93,30.23,6.0,Calm,Calm,-,N/A,,Scattered Clouds,0,2013-01-02 11:38:00
3:44 AM,28.4,26.6,93,30.23,2.0,Calm,Calm,-,N/A,,Mostly Cloudy,0,2013-01-02 11:44:00
3:49 AM,28.4,26.6,93,30.23,0.8,Calm,Calm,-,N/A,,Mist,0,2013-01-02 11:49:00
4:00 AM,28.4,26.6,93,30.23,3.0,Calm,Calm,-,N/A,,Mostly Cloudy,0,2013-01-02 12:00:00
4:10 AM,28.4,26.6,93,30.22,9.0,WSW,3.5,-,N/A,,Scattered Clouds,250,2013-01-02 12:10:00
4:56 AM,27.0,26.1,96,30.22,10.0,Calm,Calm,-,N/A,,Partly Cloudy,0,2013-01-02 12:56:00
5:56 AM,26.1,25.0,96,30.23,10.0,Calm,Calm,-,N/A,,Clear,0,2013-01-02 13:56:00
6:56 AM,27.0,25.0,92,30.23,10.0,Calm,Calm,-,N/A,,Clear,0,2013-01-02 14:56:00
7:56 AM,27.0,25.0,92,30.24,8.0,Calm,Calm,-,N/A,,Clear,0,2013-01-02 15:56:00
8:56 AM,30.0,28.0,92,30.25,10.0,Calm,Calm,-,N/A,,Clear,0,2013-01-02 16:56:00
9:56 AM,35.1,30.9,85,30.26,10.0,Calm,Calm,-,N/A,,Clear,0,2013-01-02 17:56:00
10:56 AM,39.9,32.0,73,30.24,10.0,Calm,Calm,-,N/A,,Clear,0,2013-01-02 18:56:00
11:56 AM,46.0,32.0,58,30.21,10.0,Calm,Calm,-,N/A,,Clear,0,2013-01-02 19:56:00
12:56 PM,51.1,30.9,46,30.17,10.0,Calm,Calm,-,N/A,,Clear,0,2013-01-02 20:56:00
1:56 PM,54.0,28.0,37,30.14,10.0,Calm,Calm,-,N/A,,Clear,0,2013-01-02 21:56:00
2:56 PM,55.9,30.0,37,30.14,10.0,Calm,Calm,-,N/A,,Clear,0,2013-01-02 22:56:00
3:56 PM,51.1,36.0,56,30.14,10.0,West,3.5,-,N/A,,Clear,270,2013-01-02 23:56:00
4:56 PM,46.9,34.0,61,30.14,10.0,Calm,Calm,-,N/A,,Clear,0,2013-01-03 00:56:00
5:56 PM,44.1,34.0,68,30.14,10.0,Calm,Calm,-,N/A,,Clear,0,2013-01-03 01:56:00
6:56 PM,39.9,34.0,79,30.15,7.0,Calm,Calm,-,N/A,,Clear,0,2013-01-03 02:56:00
7:56 PM,37.0,33.1,86,30.17,6.0,Calm,Calm,-,N/A,,Clear,0,2013-01-03 03:56:00
8:56 PM,35.1,32.0,89,30.17,7.0,Calm,Calm,-,N/A,,Clear,0,2013-01-03 04:56:00
9:56 PM,34.0,30.9,89,30.19,5.0,Calm,Calm,-,N/A,,Clear,0,2013-01-03 05:56:00
10:56 PM,32.0,30.0,92,30.19,8.0,Calm,Calm,-,N/A,,Clear,0,2013-01-03 06:56:00
11:56 PM,30.9,28.0,89,30.19,7.0,Calm,Calm,-,N/A,,Clear,0,2013-01-03 07:56:00